This is the latest recevied weather packets stored in our database for station/object IK2YOU-3. If no packets are shown the sender has not sent any weather packets the latest 10 day(s).
| Time | Temp. | Humidity | Pressure | Rain* | Wind** | Luminosity | Snow |
|---|---|---|---|---|---|---|---|
| 1778137433 | 15° C | 81% | 1010.7 hPa | 0 mm | - | 125 W/m² | - |
| 1778136835 | 15° C | 82% | 1010.8 hPa | 0 mm | - | 136 W/m² | - |
| 1778136364 | 15° C | 79% | 1010.7 hPa | 0 mm | - | 111 W/m² | - |
| 1778135633 | 15.56° C | 79% | 1010.5 hPa | 0 mm | - | 52 W/m² | - |
| 1778135034 | 15° C | 82% | 1010.3 hPa | 0 mm | - | 143 W/m² | - |
| 1778134434 | 14.44° C | 83% | 1010.3 hPa | 0 mm | - | 81 W/m² | - |
| 1778133962 | 13.89° C | 83% | 1010.2 hPa | 0 mm | - | 79 W/m² | - |
| 1778133234 | 13.89° C | 84% | 1010.2 hPa | 0 mm | - | 51 W/m² | - |
| 1778132635 | 13.89° C | 84% | 1010.1 hPa | 0 mm | - | 37 W/m² | - |
| 1778132033 | 13.89° C | 85% | 1010.1 hPa | 0 mm | - | 38 W/m² | - |
| 1778131433 | 13.89° C | 85% | 1010 hPa | 0 mm | - | 32 W/m² | - |
| 1778130834 | 13.33° C | 86% | 1009.8 hPa | 0 mm | - | 46 W/m² | - |
| 1778130234 | 13.33° C | 86% | 1009.7 hPa | 0 mm | - | 59 W/m² | - |
| 1778129633 | 13.33° C | 86% | 1009.5 hPa | 0 mm | - | 38 W/m² | - |
| 1778129034 | 12.78° C | 85% | 1009.5 hPa | 0 mm | - | 18 W/m² | - |
| 1778128434 | 12.78° C | 85% | 1009.3 hPa | 0 mm | - | 12 W/m² | - |
| 1778127833 | 12.78° C | 85% | 1009.3 hPa | 0 mm | - | 7 W/m² | - |
| 1778127233 | 12.78° C | 85% | 1009.2 hPa | 0 mm | - | 3 W/m² | - |
| 1778126633 | 12.22° C | 85% | 1009.1 hPa | 0 mm | - | 0 W/m² | - |
| 1778126034 | 12.78° C | 85% | 1009 hPa | 0 mm | - | 0 W/m² | - |
| 1778125430 | 12.78° C | 85% | 1009 hPa | 0 mm | - | 0 W/m² | - |
| 1778124827 | 12.78° C | 85% | 1009 hPa | 0 mm | - | 0 W/m² | - |
| 1778124227 | 12.78° C | 85% | 1008.9 hPa | 0 mm | - | 0 W/m² | - |
| 1778123624 | 12.78° C | 84% | 1008.9 hPa | 0 mm | - | 0 W/m² | - |
| 1778123024 | 12.78° C | 84% | 1008.9 hPa | 0 mm | - | 0 W/m² | - |
* Rain latest hour (hover to see other rain measurements)
** Current wind speed in m/s (hover to see current wind gust speed)